Location: Hawks Ness
(60.2333°N, 1.1667°W)
Time: 06:08:06
(UTC+00:00)

Cosmos 2181 Rocket - Pass Details

Date: 22 October 2019
Orbit: 951 x 1015 km, 82.9° (Epoch: 16 November)

Event Time Altitude Azimuth Distance (km) Brightness Sun altitude
Rises 02:55:29 0° 346° (NNW) 3,750 7.3 -30.0°
Reaches altitude 10° 02:58:03 10° 347° (NNW) 2,789 6.6 -29.7°
Maximum altitude 03:04:29 86° 76° (ENE) 1,003 3.9 -29.0°
Enters shadow 03:06:02 55° 160° (SSE) 1,179 4.2 -28.9°
